Location: *
(46.4000°N, 12.6667°E)
Time: 09:58:09
(UTC+00:00)

X-37B - Pass Details

Date: 14 December 2021
Orbit: 334 x 337 km, 45.0° (Epoch: 11 January)

Event Time Altitude Azimuth Distance (km) Brightness Sun altitude
Rises 18:01:07 0° 276° (W) 2,106 5.5 -26.2°
Reaches altitude 10° 18:03:12 10° 267° (W) 1,267 4.2 -26.6°
Enters shadow 18:03:48 15° 261° (W) 1,044 3.6 -26.7°
